Wind_Speed
14 13 13 13 13 13 12 12 12 12 12 11 11 10 10 9 9 9 9 9 9 9 8 9 9 8 7 6 5 5 4 5 5 5 6 6 6 6 5 4 4 3 3
15 15 15 14 14 13 13 12 12 12 12 12 12 12 11 11 11 10 9 9 9 9 8 9 10 10 9 8 7 7 6 6 6 6 6 7 7 7 6 5 5 5 4
16 16 16 15 15 15 14 14 13 13 13 13 13 13 13 12 12 11 11 10 10 10 9 10 11 11 10 10 9 9 8 8 7 7 7 8 8 8 7 7 6 6 6
18 17 17 17 16 16 16 15 15 15 14 14 13 13 13 13 13 12 12 11 11 12 12 12 12 12 12 12 12 11 10 10 10 10 10 9 10 10 9 8 8 8 7
19 19 19 18 18 18 17 17 16 16 16 15 15 14 14 14 13 14 13 13 12 13 14 14 14 13 13 13 14 13 13 12 12 12 12 11 11 11 10 9 9 9 9
21 20 20 20 19 19 18 18 18 18 17 17 16 16 15 15 14 15 14 14 14 14 15 15 15 15 15 15 15 15 14 14 14 14 14 13 13 12 12 11 11 11 11
22 22 22 21 20 20 20 19 19 19 19 18 18 17 17 17 16 16 16 15 15 15 16 16 16 16 16 17 17 17 16 16 16 16 16 15 14 14 14 13 12 13 13
24 24 24 23 22 22 21 21 20 20 20 19 19 19 19 19 18 17 17 17 16 16 17 17 18 18 18 18 19 19 18 18 17 17 17 17 16 15 15 14 14 14 13
25 25 25 24 23 23 23 23 23 22 22 21 21 21 20 20 20 19 19 18 18 18 18 18 19 19 20 19 19 20 19 19 19 19 19 19 18 17 16 16 16 15 15
26 26 26 25 25 25 25 25 24 24 23 23 23 22 22 22 21 21 20 20 19 19 20 20 20 19 19 20 20 20 20 20 21 20 20 20 19 19 19 18 17 17 17
27 27 27 27 26 26 26 26 26 25 25 24 24 24 24 24 24 23 22 22 21 21 21 21 20 19 20 21 21 21 21 21 22 22 22 22 22 21 21 20 19 19 19
29 29 29 28 28 27 27 27 27 27 27 26 25 26 25 26 25 24 24 24 23 23 23 22 22 21 22 23 23 22 23 23 23 23 23 23 24 23 23 23 22 21 20
31 30 30 30 30 29 29 28 28 28 28 28 28 27 27 27 27 26 26 26 26 25 25 24 24 23 24 24 25 25 25 25 25 25 25 25 25 25 25 24 24 23 23
32 31 31 32 32 31 31 31 30 30 30 30 29 29 29 28 28 28 28 28 28 28 27 27 27 27 26 26 26 27 27 26 26 26 26 26 26 26 26 25 25 25 25
34 33 33 33 33 33 33 32 32 32 31 31 31 30 30 30 30 30 29 30 30 29 30 30 29 29 28 28 28 28 28 28 28 28 28 28 27 27 27 27 26 25 26
36 36 36 36 36 35 34 34 34 34 34 33 33 32 32 31 31 31 31 31 31 31 31 31 30 30 29 30 30 30 29 30 30 30 30 29 29 29 29 29 28 27 27
37 37 37 37 37 37 36 36 35 35 35 35 35 35 34 34 33 33 32 33 32 32 32 32 32 31 31 31 31 31 31 31 31 31 31 31 30 31 31 31 30 30 29
36 38 38 38 38 38 38 37 37 37 37 37 37 37 37 36 36 36 36 36 35 35 35 34 34 34 33 33 33 33 33 33 33 32 33 32 32 32 33 33 32 32 31
37 38 39 39 39 39 39 39 39 39 39 39 39 39 38 38 38 38 38 37 38 38 37 37 36 35 36 35 35 35 35 34 34 33 33 34 34 34 35 35 35 34 34
38 38 38 38 39 39 39 40 40 40 40 40 40 40 40 40 40 39 39 39 40 40 39 39 38 38 37 36 36 36 36 36 36 35 35 36 36 36 37 37 37 37 36
38 39 39 39 39 39 40 40 41 41 41 42 42 42 42 42 41 41 41 41 41 40 40 40 40 39 38 38 38 37 37 37 37 37 37 38 38 38 38 38 38 38 38
38 39 39 40 41 41 41 42 42 42 43 44 44 44 44 44 44 44 43 43 43 42 41 41 40 40 40 39 39 38 38 38 38 38 39 39 39 39 39 39 39 39 39
40 40 40 40 41 42 43 44 44 44 45 45 45 45 45 45 46 46 46 45 45 44 43 43 42 42 41 41 40 40 39 39 38 38 38 39 40 40 40 40 41 42 41
41 41 41 41 41 42 43 44 45 45 45 45 46 47 47 47 47 47 47 46 46 46 45 45 44 44 43 43 42 42 41 41 41 40 40 40 41 42 42 42 43 43 43
41 42 42 42 42 43 44 45 45 46 47 46 47 48 48 49 49 48 48 47 47 47 47 46 46 46 45 44 43 43 42 42 42 42 41 41 42 42 43 44 44 44 44
42 42 43 43 43 44 44 45 46 47 48 48 49 49 49 49 49 50 49 49 48 48 48 48 47 47 46 45 44 44 44 44 43 43 42 42 42 43 43 43 44 45 46
Wind_Direction
245 246 246 247 246 246 246 246 247 251 254 257 259 263 268 272 273 276 278 282 285 281 269 264 268 272 271 279 280 274 250 221 220 219 223 226 227 229 233 234 239 237 240
245 245 246 248 248 248 249 249 249 252 256 259 260 263 266 268 269 270 274 278 280 279 271 264 265 265 265 268 270 263 252 239 241 233 234 235 235 237 239 242 244 245 247
245 244 245 247 248 249 251 253 252 253 256 260 262 263 264 265 264 267 270 273 275 274 268 265 266 264 264 264 262 260 257 249 248 248 243 241 241 242 245 245 246 248 248
246 246 246 248 249 250 251 251 253 254 256 260 263 263 264 264 261 263 267 270 271 271 268 266 266 263 263 264 262 258 255 252 251 253 249 246 246 245 246 248 247 248 249
247 248 248 249 249 250 252 252 252 254 255 258 261 262 263 263 263 263 264 267 269 267 265 266 267 266 264 263 263 260 256 253 251 253 254 251 249 246 246 250 250 251 252
248 248 248 249 250 250 251 254 254 254 256 258 259 262 263 263 264 264 264 265 269 268 264 264 265 266 264 262 262 261 258 256 253 253 254 254 252 250 248 249 253 252 252
249 248 248 248 250 251 251 253 255 256 256 257 258 260 262 264 266 265 265 264 265 268 267 262 261 263 263 263 261 259 257 257 257 256 256 255 253 250 249 248 252 255 253
251 250 248 248 249 251 253 253 254 256 257 257 258 258 260 263 266 266 265 265 264 264 266 266 266 264 264 263 260 258 257 257 257 257 257 255 253 251 250 249 250 254 256
251 251 250 249 250 252 252 253 254 255 256 257 258 259 260 261 263 265 265 263 265 266 266 266 269 267 263 260 258 258 258 257 257 257 256 253 253 253 252 251 250 253 256
252 251 250 250 250 251 252 254 255 255 256 258 259 260 260 261 262 263 263 262 264 266 267 269 267 265 261 257 258 258 257 257 257 257 257 254 253 253 254 253 254 254 255
252 252 251 250 250 250 253 254 255 255 257 258 259 259 259 260 261 261 262 262 263 264 266 266 264 262 259 259 258 260 259 258 257 258 258 256 254 253 254 254 255 255 254
252 252 252 252 252 251 252 254 255 256 257 258 259 259 259 259 260 261 262 263 263 264 265 265 262 261 261 261 260 261 261 260 259 259 259 258 256 254 254 255 255 256 255
253 252 252 252 253 254 254 254 255 255 256 257 259 260 259 260 260 261 262 264 264 265 265 265 263 263 262 261 262 263 263 262 260 259 259 258 257 256 255 256 256 256 256
253 252 253 253 253 254 254 254 254 255 256 257 258 260 259 259 260 260 262 264 265 265 265 265 265 263 263 262 263 262 262 262 261 259 259 258 257 256 255 256 257 257 256
253 252 252 252 253 254 255 255 255 254 255 257 258 259 259 258 259 261 263 265 265 264 265 265 264 264 264 264 263 262 261 262 263 260 259 259 257 256 255 256 258 258 258
253 253 252 252 253 254 255 255 255 255 255 256 257 258 259 260 260 261 262 264 266 266 266 264 263 264 264 264 265 264 263 262 263 262 259 257 256 255 256 256 256 257 259
252 253 253 253 254 255 255 255 255 255 255 256 257 258 259 260 261 262 263 264 265 266 267 265 263 263 264 264 265 265 264 263 264 262 258 257 256 255 256 256 255 256 258
252 252 253 254 254 254 255 255 256 256 256 257 258 258 259 260 261 262 264 265 265 265 267 265 264 264 264 264 264 264 264 264 265 262 259 257 256 256 255 256 256 256 257
252 253 252 253 255 255 255 256 256 257 257 257 259 259 260 261 262 263 264 265 265 264 265 265 265 265 264 264 264 264 264 265 265 263 261 259 257 256 255 255 257 257 257
253 253 252 253 254 255 255 256 256 256 257 257 258 260 260 261 263 264 265 265 266 265 264 263 265 265 265 264 264 264 264 264 264 263 261 259 257 256 256 256 256 256 257
255 255 255 254 254 255 255 256 257 257 256 257 258 259 261 262 263 264 266 266 266 265 264 264 265 265 265 265 264 263 263 263 263 263 261 258 257 256 256 255 256 256 257
255 256 255 256 256 256 256 257 257 257 256 256 257 259 261 262 263 265 266 266 266 265 264 264 264 265 266 265 265 264 263 263 263 263 261 259 256 255 256 255 256 256 256
257 256 256 256 256 257 257 257 258 258 257 257 258 260 261 263 263 264 265 265 265 265 264 265 264 263 264 264 264 264 264 263 263 264 263 260 257 256 255 255 255 256 256
257 257 257 257 257 257 258 258 258 258 259 259 259 260 261 262 264 264 265 264 263 263 263 264 265 264 264 264 264 264 265 265 265 265 264 262 259 257 256 255 256 257 257
258 257 258 257 257 258 258 258 259 259 259 260 260 260 261 262 263 263 263 263 262 262 263 264 263 263 264 264 264 264 264 265 265 265 264 262 259 258 258 258 257 257 258
260 259 259 258 258 259 259 258 259 260 260 260 261 261 262 263 263 263 262 262 262 262 262 263 263 262 263 263 263 264 264 265 265 265 265 262 259 258 258 258 258 258 258
Height
5833 5834 5835 5836 5836 5837 5838 5839 5839 5840 5841 5841 5842 5843 5843 5844 5845 5845 5845 5845 5844 5842 5842 5843 5845 5847 5848 5849 5849 5849 5850 5851 5852 5854 5855 5856 5857 5858 5858 5859 5859 5860 5860
5830 5831 5832 5833 5834 5835 5836 5837 5837 5838 5839 5839 5840 5840 5841 5842 5843 5843 5843 5843 5842 5841 5840 5842 5844 5846 5847 5848 5849 5849 5850 5851 5852 5853 5854 5855 5856 5857 5857 5858 5859 5859 5859
5827 5828 5829 5830 5831 5833 5833 5834 5835 5836 5836 5837 5838 5838 5839 5840 5840 5841 5841 5841 5841 5840 5840 5842 5843 5844 5845 5847 5847 5849 5849 5850 5851 5852 5853 5854 5855 5856 5856 5857 5857 5858 5858
5824 5825 5826 5827 5828 5830 5831 5832 5832 5833 5834 5835 5835 5836 5836 5837 5838 5838 5839 5839 5839 5840 5840 5841 5842 5843 5844 5845 5845 5846 5848 5849 5850 5850 5851 5853 5853 5854 5855 5855 5856 5856 5857
5820 5821 5823 5824 5825 5826 5828 5828 5829 5830 5831 5832 5832 5833 5834 5834 5835 5836 5836 5837 5837 5838 5838 5839 5840 5841 5841 5842 5843 5844 5845 5846 5847 5848 5849 5850 5851 5852 5853 5853 5854 5855 5855
5816 5818 5819 5820 5822 5823 5824 5825 5826 5827 5828 5829 5829 5830 5831 5832 5832 5833 5834 5834 5834 5835 5836 5837 5837 5838 5839 5839 5840 5841 5842 5843 5845 5846 5847 5848 5849 5850 5850 5851 5852 5853 5853
5812 5814 5815 5816 5818 5819 5820 5822 5822 5823 5824 5825 5826 5827 5828 5828 5829 5830 5831 5831 5832 5832 5833 5833 5834 5835 5835 5836 5837 5837 5839 5840 5841 5843 5844 5845 5846 5847 5848 5849 5850 5851 5851
5808 5809 5810 5812 5813 5815 5816 5817 5818 5819 5820 5821 5822 5823 5824 5825 5826 5826 5827 5828 5828 5829 5829 5829 5830 5831 5831 5832 5833 5834 5835 5837 5838 5839 5841 5842 5843 5844 5845 5846 5847 5848 5849
5803 5804 5806 5807 5809 5810 5812 5813 5814 5815 5816 5817 5818 5819 5820 5821 5821 5822 5823 5824 5824 5825 5825 5825 5825 5825 5826 5827 5828 5830 5831 5832 5834 5835 5837 5838 5839 5840 5842 5843 5844 5845 5846
5798 5799 5800 5802 5804 5805 5807 5808 5809 5810 5812 5813 5814 5814 5815 5816 5817 5818 5819 5820 5820 5821 5821 5820 5819 5819 5820 5822 5824 5826 5827 5828 5829 5831 5832 5834 5835 5836 5838 5839 5840 5841 5842
5792 5793 5795 5797 5798 5800 5801 5803 5804 5805 5806 5808 5809 5810 5811 5812 5812 5813 5814 5815 5816 5816 5817 5817 5815 5816 5817 5818 5820 5821 5823 5824 5825 5826 5828 5829 5831 5832 5833 5835 5836 5837 5838
5786 5788 5789 5791 5793 5794 5796 5797 5798 5799 5801 5802 5803 5804 5805 5806 5807 5808 5809 5810 5811 5811 5812 5813 5812 5812 5813 5814 5815 5817 5818 5819 5820 5822 5823 5824 5826 5827 5828 5830 5831 5832 5834
5780 5781 5783 5785 5787 5788 5790 5791 5792 5794 5795 5796 5797 5798 5799 5800 5801 5802 5804 5804 5805 5806 5807 5807 5808 5808 5809 5809 5810 5812 5813 5814 5815 5816 5818 5819 5820 5822 5823 5825 5826 5827 5829
5773 5775 5776 5778 5780 5781 5783 5785 5786 5787 5789 5790 5791 5792 5793 5794 5795 5796 5798 5799 5799 5800 5801 5802 5803 5803 5804 5804 5805 5806 5807 5808 5809 5810 5812 5813 5815 5816 5818 5819 5820 5822 5823
5765 5767 5769 5770 5772 5774 5776 5778 5779 5781 5782 5783 5785 5786 5787 5788 5789 5790 5791 5792 5793 5794 5794 5795 5796 5797 5798 5798 5799 5800 5801 5801 5802 5803 5805 5807 5808 5810 5811 5813 5814 5816 5817
5757 5759 5761 5762 5764 5766 5768 5770 5772 5773 5775 5776 5777 5779 5780 5781 5782 5783 5784 5785 5786 5787 5787 5788 5789 5790 5791 5792 5792 5793 5794 5795 5796 5797 5798 5800 5801 5803 5805 5806 5808 5809 5811
5749 5750 5752 5754 5756 5758 5760 5761 5763 5765 5767 5768 5770 5771 5772 5774 5775 5776 5777 5778 5779 5780 5780 5781 5781 5782 5784 5784 5785 5786 5787 5787 5788 5789 5791 5792 5794 5796 5797 5799 5801 5802 5804
5740 5742 5744 5745 5748 5749 5751 5753 5755 5757 5758 5760 5762 5763 5764 5765 5767 5768 5769 5770 5771 5771 5772 5773 5774 5775 5775 5776 5777 5778 5779 5780 5780 5781 5782 5784 5786 5788 5790 5792 5793 5795 5797
5731 5733 5735 5736 5739 5740 5742 5744 5746 5747 5749 5751 5753 5754 5756 5757 5758 5759 5760 5761 5762 5763 5763 5764 5765 5766 5767 5768 5769 5770 5770 5771 5772 5773 5774 5775 5777 5779 5781 5783 5785 5787 5789
5722 5724 5725 5727 5729 5731 5733 5734 5736 5738 5740 5742 5744 5745 5747 5748 5749 5750 5751 5752 5753 5753 5754 5755 5756 5757 5757 5758 5759 5760 5761 5762 5763 5764 5765 5766 5768 5770 5772 5774 5777 5778 5781
5713 5714 5716 5718 5719 5721 5723 5724 5727 5729 5731 5733 5734 5736 5737 5738 5739 5740 5741 5742 5743 5744 5744 5745 5746 5747 5748 5749 5750 5751 5752 5752 5754 5755 5756 5757 5759 5761 5763 5765 5767 5769 5772
5703 5704 5706 5708 5710 5711 5712 5714 5717 5718 5720 5722 5724 5725 5726 5728 5729 5730 5731 5732 5732 5733 5734 5735 5736 5737 5738 5739 5740 5741 5743 5744 5744 5745 5746 5748 5749 5751 5753 5755 5757 5760 5762
5694 5695 5696 5698 5699 5701 5702 5704 5706 5708 5709 5711 5713 5715 5716 5717 5718 5719 5720 5721 5721 5722 5723 5725 5726 5727 5728 5729 5730 5731 5732 5734 5735 5736 5736 5737 5739 5741 5743 5744 5747 5749 5751
5684 5685 5686 5687 5689 5690 5692 5693 5695 5696 5698 5700 5702 5703 5704 5705 5706 5707 5708 5709 5710 5711 5712 5713 5714 5716 5717 5718 5719 5720 5722 5723 5724 5726 5727 5727 5728 5730 5732 5734 5736 5738 5740
5674 5675 5676 5677 5679 5680 5681 5683 5684 5685 5686 5688 5690 5691 5692 5693 5694 5694 5695 5697 5697 5699 5700 5701 5703 5704 5706 5707 5708 5709 5710 5712 5713 5714 5716 5717 5718 5720 5721 5723 5725 5727 5728
5664 5665 5666 5667 5668 5669 5670 5671 5673 5674 5675 5676 5677 5679 5680 5681 5681 5682 5683 5684 5685 5686 5688 5689 5690 5692 5693 5695 5697 5698 5699 5701 5702 5703 5705 5706 5707 5709 5710 5711 5713 5715 5717